Haines, AK

9:30 AM AKST on February 27, 2017 (GMT -0900)
Haines

Weather History for PAHN - October, 2013

Change the Weather History Date:

Monday, October 14, 2013

  Actual Average Record
Temperature  
Mean Temperature 48 °F -  
Max Temperature 51 °F 45 °F 55 °F (1981)
Min Temperature 46 °F 37 °F 21 °F (1992)
Degree Days  
Heating Degree Days 16    
Moisture  
Dew Point 45 °F    
Average Humidity 85    
Maximum Humidity 93    
Minimum Humidity 76    
Precipitation  
Precipitation 0.12 in - - ()
Sea Level Pressure  
Sea Level Pressure 30.13 in    
Wind  
Wind Speed 13 mph (East)    
Max Wind Speed 20 mph    
Max Gust Speed 37 mph    
Visibility 10 miles    
Events Rain    
Averages and records for this station are not official NWS values.
T = Trace of Precipitation, MM = Missing Value Source: NWS Daily Summary

Daily Weather History Graph

Daily Weather History Graph

Search for Another Location

Airport or City:

Trip Planner

Search our weather history database for the weather conditions in past years. The results will help you decide how hot, cold, wet, or windy it might be!

Date:

Astronomy

Oct. 14, 2013 Rise Set
Actual Time 7:38 AM AKDT 5:56 PM AKDT
Civil Twilight 6:57 AM AKDT 6:37 PM AKDT
Nautical Twilight 6:10 AM AKDT 7:24 PM AKDT
Astronomical Twilight 5:22 AM AKDT 8:11 PM AKDT
Moon 4:20 PM AKDT (10/14) 2:04 AM AKDT (10/14)
Length of Visible Light 11h 40m
Length of Day
10h 17m
Waxing Gibbous, 80% of the Moon is Illuminated
Oct 14
Waxing Gibbous
Oct 18
Full
Oct 26
Last Quarter
Nov 3
New
Nov 9
First Quarter

Hourly Weather History & Observations

Time (AKDT) Temp. Windchill Dew Point Humidity Pressure Visibility Wind Dir Wind Speed Gust Speed Precip Events Conditions
12:54 AM 50.0 °F - 46.9 °F 89% 30.02 in 8.0 mi ENE 18.4 mph 36.8 mph 0.04 in Rain Light Rain
1:54 AM 50.0 °F - 46.9 °F 89% 30.04 in 9.0 mi East 12.7 mph 26.5 mph 0.03 in Rain Light Rain
2:17 AM 50.0 °F - 46.4 °F 87% 30.04 in 8.0 mi East 11.5 mph 29.9 mph 0.02 in Rain Light Rain
2:54 AM 50.0 °F - 46.9 °F 89% 30.04 in 8.0 mi East 17.3 mph 24.2 mph 0.04 in Rain Light Rain
3:06 AM 50.0 °F - 46.4 °F 87% 30.03 in 10.0 mi East 13.8 mph 24.2 mph 0.01 in Rain Light Rain
3:29 AM 50.0 °F - 46.4 °F 87% 30.04 in 10.0 mi East 17.3 mph 26.5 mph 0.01 in   Overcast
3:54 AM 50.0 °F - 46.9 °F 89% 30.05 in 10.0 mi East 19.6 mph 31.1 mph 0.01 in   Overcast
4:04 AM 50.0 °F - 46.4 °F 87% 30.04 in 10.0 mi ENE 19.6 mph 32.2 mph 0.00 in Rain Light Rain
4:20 AM 50.0 °F - 46.4 °F 87% 30.05 in 10.0 mi ENE 15.0 mph 27.6 mph 0.00 in Rain Light Rain
4:54 AM 50.0 °F - 46.9 °F 89% 30.06 in 10.0 mi ENE 17.3 mph 28.8 mph 0.00 in Rain Light Rain
5:54 AM 50.0 °F - 46.9 °F 89% 30.06 in 10.0 mi East 10.4 mph 24.2 mph 0.00 in   Overcast
6:39 AM 51.8 °F - 46.4 °F 82% 30.06 in 10.0 mi East 12.7 mph 28.8 mph N/A   Mostly Cloudy
6:54 AM 51.1 °F - 46.9 °F 86% 30.06 in 10.0 mi East 15.0 mph 24.2 mph N/A   Mostly Cloudy
7:54 AM 51.1 °F - 46.9 °F 86% 30.09 in 10.0 mi East 13.8 mph 21.9 mph 0.00 in   Overcast
8:54 AM 51.1 °F - 46.0 °F 83% 30.11 in 10.0 mi ENE 9.2 mph 16.1 mph N/A   Overcast
9:06 AM 51.8 °F - 46.4 °F 82% 30.10 in 10.0 mi East 8.1 mph 25.3 mph N/A   Mostly Cloudy
9:54 AM 51.1 °F - 46.0 °F 83% 30.11 in 10.0 mi East 9.2 mph - N/A   Partly Cloudy
10:54 AM 51.1 °F - 46.0 °F 83% 30.11 in 10.0 mi East 8.1 mph - N/A   Partly Cloudy
11:54 AM 50.0 °F - 46.0 °F 86% 30.12 in 10.0 mi East 10.4 mph 16.1 mph N/A   Mostly Cloudy
12:18 PM 50.0 °F - 46.4 °F 87% 30.09 in 10.0 mi East 11.5 mph 23.0 mph N/A   Scattered Clouds
12:54 PM 50.0 °F - 46.0 °F 86% 30.11 in 10.0 mi East 9.2 mph 18.4 mph N/A   Clear
1:44 PM 50.0 °F - 46.4 °F 87% 30.11 in 10.0 mi East 9.2 mph - N/A   Mostly Cloudy
1:54 PM 50.0 °F - 46.0 °F 86% 30.12 in 10.0 mi East 8.1 mph - N/A   Mostly Cloudy
2:33 PM 48.2 °F - 46.4 °F 93% 30.12 in 10.0 mi East 8.1 mph - N/A   Mostly Cloudy
2:42 PM 48.2 °F - 44.6 °F 87% 30.12 in 10.0 mi East 8.1 mph 16.1 mph N/A   Mostly Cloudy
2:54 PM 48.9 °F - 45.0 °F 86% 30.13 in 10.0 mi East 9.2 mph 20.7 mph N/A   Mostly Cloudy
3:22 PM 51.8 °F - 44.6 °F 76% 30.13 in 10.0 mi East 9.2 mph 21.9 mph N/A   Partly Cloudy
3:54 PM 48.9 °F - 44.1 °F 83% 30.14 in 10.0 mi East 5.8 mph - N/A   Partly Cloudy
4:13 PM 50.0 °F - 44.6 °F 82% 30.14 in 10.0 mi East 8.1 mph - N/A   Mostly Cloudy
4:40 PM 48.2 °F - 44.6 °F 87% 30.14 in 10.0 mi East 5.8 mph - N/A   Mostly Cloudy
4:54 PM 48.9 °F - 44.1 °F 83% 30.15 in 10.0 mi East 8.1 mph - N/A   Mostly Cloudy
5:54 PM 48.0 °F - 43.0 °F 83% 30.17 in 10.0 mi ENE 9.2 mph - N/A   Mostly Cloudy
6:36 PM 48.2 °F - 42.8 °F 82% 30.18 in 10.0 mi East 8.1 mph 17.3 mph N/A   Mostly Cloudy
6:54 PM 48.0 °F - 43.0 °F 83% 30.20 in 10.0 mi East 9.2 mph - N/A   Mostly Cloudy
7:06 PM 48.2 °F - 42.8 °F 82% 30.19 in 10.0 mi ENE 8.1 mph - N/A   Mostly Cloudy
7:45 PM 48.2 °F - 42.8 °F 82% 30.20 in 10.0 mi East 10.4 mph 17.3 mph N/A   Overcast
7:54 PM 48.0 °F - 43.0 °F 83% 30.22 in 10.0 mi ENE 11.5 mph 19.6 mph N/A   Overcast
8:11 PM 46.4 °F 42.4 °F 42.8 °F 87% 30.22 in 10.0 mi ENE 8.1 mph 19.6 mph N/A   Mostly Cloudy
8:45 PM 46.4 °F 42.9 °F 42.8 °F 87% 30.24 in 10.0 mi ENE 6.9 mph - N/A   Overcast
8:54 PM 46.9 °F - 43.0 °F 86% 30.25 in 10.0 mi East 6.9 mph 17.3 mph N/A   Overcast
9:54 PM 46.9 °F - 43.0 °F 86% 30.27 in 10.0 mi East 5.8 mph 17.3 mph N/A   Mostly Cloudy
10:54 PM 46.9 °F - 43.0 °F 86% 30.28 in 10.0 mi East 10.4 mph - N/A   Overcast
11:54 PM 46.9 °F - 43.0 °F 86% 30.30 in 10.0 mi Variable 6.9 mph - N/A   Overcast